Other Public Products
Issued by NWS Charleston, SC

Current Version | Previous Version | Text Only | Print | Product List | Glossary Off
Versions: 1 2 3 4 5 6 7 8 9 10 11 12 13 14 15 16 17 18 19 20 21 22 23 24 25 26 27 28 29 30 31 32 33 34 35 36 37 38 39 40 41 42 43 44 45 46 47 48 49 50

928
FPUS82 KCHS 222027
OPUCHS

TEST...KCHS/KSAV Gateway Observations...TEST
National Weather Service Charleston SC
300 PM EST WED NOV 22 2017

NOTE: "fair" indicates few or no clouds below 12,000 feet with no
significant weather and/or obstructions to visibility.

SCZ050-WAZ558-NCZ071-TXZ119-213-PAZ071-DCZ001-FLZ074-172-MI076-
NYZ176-178-MAZ016-IL014-TNZ027-NJZ106-GAZ044-MD014-222100-

...Gateway Observations for Charleston International...

CITY           SKY/WX    TMP DP  RH WIND       PRES   REMARKS
Chas Airport   MOSUNNY   68  56  65 NW8       29.97S
Seattle        PTSUNNY   64  59  83 S10       29.98F
Charlotte      CLOUDY    64  37  36 N12       30.02F
Dallas DFW     PTSUNNY   56  19  23 N14       30.30F
Dallas Love    PTSUNNY   53  23  31 NW13      30.31F
Philladelphia  PTSUNNY   50  33  52 N16G26    29.98R
Wash National  MOSUNNY   52  30  43 N25G35    30.05R
Baltimore      MOSUNNY   50  28  42 NW17G28   30.02R
Miami          MOSUNNY   83  69  62 SE7       29.89S
Detroit        PTSUNNY   35  17  47 N6        30.26S WCI  30
Newark         MOSUNNY   50  33  52 W22       29.93R
Laguardia      CLOUDY    51  36  56 NW20G28   29.89R
J F K          PTSUNNY   51  39  63 NW20      29.90R
Boston Logan   RAIN      48  46  93 NW13      29.80S FOG
Ft. Lauderdale MOSUNNY   80  70  71 E10       29.88F
Chicago O`Hare MOSUNNY   34  15  46 W8        30.26F WCI  27
Chicago Midway MOSUNNY   35  15  44 SW7       30.27F WCI  29
Houston Bush   MOSUNNY   69  48  47 N10G23    30.16F
Houston Hobby  MOSUNNY   68  50  52 N10G21    30.15F
Nashville      MOSUNNY   48  25  40 NE10G18   30.22F
Atlanta        CLOUDY    61  37  41 NW12G20   30.04S

$$

GAZ044-118-TXZ119-213-NCZ071-DCZ001-MDZ014-506-PAZ021-071-NJZ106-
NYZ176-178-MAZ106-OHZ011-021-055-MIZ076-KYZ091-ILZ014-INZ047-
MNZ060-ONZ431-222100-

...Gateway Observations for Savannah International...

CITY           SKY/WX    TMP DP  RH WIND       PRES   REMARKS
Savannah Arpt  PTSUNNY   66  58  75 NW7       29.99S
Atlanta        CLOUDY    61  37  41 NW12G20   30.04S
Charlotte      CLOUDY    64  37  36 N12       30.02F
Dallas DFW     PTSUNNY   56  19  23 N14       30.30F
Houston Bush   MOSUNNY   69  48  47 N10G23    30.16F
Wash National  MOSUNNY   52  30  43 N25G35    30.05R
Wash Dulles    MOSUNNY   51  29  42 N16G28    30.06R
Baltimore      MOSUNNY   50  28  42 NW17G28   30.02R
Philadelphia   PTSUNNY   50  33  52 N16G26    29.98R
Newark         MOSUNNY   50  33  52 W22       29.93R
Laguardia      CLOUDY    51  36  56 NW20G28   29.89R
J F K          PTSUNNY   51  39  63 NW20      29.90R
Boston         RAIN      48  46  93 NW13      29.80S FOG
Pittsburg      CLOUDY    34  25  69 NW10      30.18S WCI  26
Akron          CLOUDY    34  20  56 NW8       30.21S WCI  27
Cleveland      CLOUDY    34  20  56 NW10      30.26S WCI  26
Cincinnati     MOSUNNY   40  25  55 NW7       30.26F WCI  35
Columbus       CLOUDY    35  23  61 NW9       30.26S WCI  27
Detroit        PTSUNNY   35  17  47 N6        30.26S WCI  30
Chicago O`Hare MOSUNNY   34  15  46 W8        30.26F WCI  27
Minneapolis    CLOUDY    26  13  57 S10       30.16F WCI  16
Indianapolis   MOSUNNY   39  23  52 W5        30.28F WCI  36
Toronto Canada PTSUNNY   32  14  47 NW15G23   30.17R WCI  22

$$




USA.gov is the U.S. government's official web portal to all federal, state and local government web resources and services.